Location: Unspecified
(0.0000°N, 0.0000°E)
Time: 04:55:54
(UTC+00:00)

MOZHAYETS 4 - Pass Details

Date: 06 August 2024
Orbit: 650 x 668 km, 98.3° (Epoch: 15 September)

Event Time Altitude Azimuth Distance (km) Brightness Sun altitude
Exits shadow 03:54:43 12° 360° (N) 1,927 10.2 -31.3°
Drops below altitude 10° 03:55:05 10° 359° (N) 2,076 10.4 -31.2°
Sets 03:57:20 0° 355° (N) 2,989 11.2 -30.7°
